,,PressureMeas_1m,,PRMeasQMR101_1,,RHStat155_1m_1,,SRMeasQMS101R_1m,,TAStat155_1m_1,,GenWind_1,,GenWind_1,
2019-06-20, 00:00:06,VALID,917.887,VALID,0.0,VALID,98.607,VALID,-0.032,VALID,21.039,INVALID,360.0,VALID,0.0,
2019-06-20, 00:01:06,VALID,917.874,VALID,0.0,VALID,98.58,VALID,-0.039,VALID,21.042,INVALID,360.0,VALID,0.0,
2019-06-20, 00:02:06,VALID,917.883,VALID,0.0,VALID,98.544,VALID,0.0,VALID,21.035,INVALID,360.0,VALID,0.0,
2019-06-20, 00:03:06,VALID,917.907,VALID,0.0,VALID,98.521,VALID,-0.005,VALID,21.019,INVALID,360.0,VALID,0.0,
2019-06-20, 00:04:06,VALID,917.906,VALID,0.0,VALID,98.484,VALID,0.007,VALID,21.014,INVALID,360.0,VALID,0.0,
2019-06-20, 00:05:06,VALID,917.929,VALID,0.0,VALID,98.515,VALID,0.018,VALID,21.033,INVALID,360.0,VALID,0.0,
2019-06-20, 00:06:06,VALID,917.928,VALID,0.0,VALID,98.532,VALID,0.031,VALID,21.029,INVALID,360.0,VALID,0.0,
2019-06-20, 00:07:06,VALID,917.953,VALID,0.0,VALID,98.509,VALID,0.02,VALID,21.021,INVALID,360.0,VALID,0.0,
2019-06-20, 00:08:06,VALID,917.956,VALID,0.0,VALID,98.484,VALID,0.031,VALID,21.009,INVALID,360.0,VALID,0.0,
2019-06-20, 00:09:06,VALID,917.961,VALID,0.0,VALID,98.522,VALID,0.023,VALID,21.014,INVALID,360.0,VALID,0.0,
2019-06-20, 00:10:06,VALID,917.966,VALID,0.0,VALID,98.541,VALID,0.026,VALID,21.011,INVALID,360.0,VALID,0.0,
2019-06-20, 00:11:06,VALID,917.947,VALID,0.0,VALID,98.541,VALID,0.017,VALID,21.002,INVALID,360.0,VALID,0.0,
2019-06-20, 00:12:06,VALID,917.945,VALID,0.0,VALID,98.546,VALID,0.012,VALID,21.003,INVALID,360.0,VALID,0.0,
2019-06-20, 00:13:06,VALID,917.949,VALID,0.0,VALID,98.551,VALID,0.031,VALID,21.004,INVALID,360.0,VALID,0.0,
2019-06-20, 00:14:06,VALID,917.961,VALID,0.0,VALID,98.553,VALID,0.028,VALID,21.004,INVALID,360.0,VALID,0.0,
2019-06-20, 00:15:06,VALID,917.96,VALID,0.0,VALID,98.532,VALID,0.031,VALID,21.001,INVALID,360.0,VALID,0.0,
2019-06-20, 00:16:06,VALID,917.96,VALID,0.0,VALID,98.532,VALID,0.012,VALID,20.999,INVALID,360.0,VALID,0.0,
2019-06-20, 00:17:06,VALID,917.963,VALID,0.0,VALID,98.484,VALID,0.018,VALID,20.98,INVALID,360.0,VALID,0.0,
2019-06-20, 00:18:06,VALID,917.972,VALID,0.0,VALID,98.476,VALID,0.012,VALID,20.96,INVALID,360.0,VALID,0.0,
2019-06-20, 00:19:06,VALID,917.971,VALID,0.0,VALID,98.468,VALID,0.02,VALID,20.949,INVALID,360.0,VALID,0.0,
2019-06-20, 00:20:06,VALID,917.962,VALID,0.0,VALID,98.526,VALID,0.008,VALID,20.963,INVALID,360.0,VALID,0.0,
2019-06-20, 00:21:06,VALID,917.96,VALID,0.0,VALID,98.536,VALID,0.006,VALID,20.95,INVALID,360.0,VALID,0.0,
2019-06-20, 00:22:06,VALID,917.953,VALID,0.0,VALID,98.557,VALID,0.01,VALID,20.933,INVALID,360.0,VALID,0.0,
2019-06-20, 00:23:06,VALID,917.961,VALID,0.0,VALID,98.628,VALID,0.002,VALID,20.941,INVALID,360.0,VALID,0.0,
2019-06-20, 00:24:06,VALID,917.964,VALID,0.0,VALID,98.693,VALID,0.002,VALID,20.936,INVALID,360.0,VALID,0.0,
2019-06-20, 00:25:06,VALID,917.969,VALID,0.0,VALID,98.72,VALID,0.012,VALID,20.912,INVALID,360.0,VALID,0.0,
2019-06-20, 00:26:06,VALID,917.972,VALID,0.0,VALID,98.714,VALID,0.019,VALID,20.876,INVALID,360.0,VALID,0.0,
2019-06-20, 00:27:06,VALID,917.982,VALID,0.0,VALID,98.682,VALID,0.008,VALID,20.853,INVALID,360.0,VALID,0.0,
2019-06-20, 00:28:06,VALID,917.979,VALID,0.0,VALID,98.704,VALID,0.005,VALID,20.848,INVALID,360.0,VALID,0.0,
2019-06-20, 00:29:06,VALID,917.98,VALID,0.0,VALID,98.726,VALID,0.011,VALID,20.844,INVALID,360.0,VALID,0.0,
2019-06-20, 00:30:06,VALID,917.983,VALID,0.0,VALID,98.74,VALID,0.015,VALID,20.841,INVALID,360.0,VALID,0.0,
2019-06-20, 00:31:06,VALID,917.976,VALID,0.0,VALID,98.743,VALID,-0.014,VALID,20.845,INVALID,360.0,VALID,0.0,
2019-06-20, 00:32:06,VALID,917.957,VALID,0.0,VALID,98.8,VALID,-0.006,VALID,20.849,INVALID,360.0,VALID,0.0,
2019-06-20, 00:33:06,VALID,917.941,VALID,0.0,VALID,98.806,VALID,0.01,VALID,20.849,INVALID,360.0,VALID,0.0,
2019-06-20, 00:34:06,VALID,917.95,VALID,0.0,VALID,98.838,VALID,0.003,VALID,20.855,INVALID,360.0,VALID,0.0,
2019-06-20, 00:35:06,VALID,917.932,VALID,0.0,VALID,98.849,VALID,-0.001,VALID,20.875,INVALID,360.0,VALID,0.0,
2019-06-20, 00:36:06,VALID,917.921,VALID,0.0,VALID,98.845,VALID,-0.011,VALID,20.883,INVALID,360.0,VALID,0.0,
2019-06-20, 00:37:06,VALID,917.915,VALID,0.0,VALID,98.806,VALID,0.002,VALID,20.88,INVALID,360.0,VALID,0.0,
2019-06-20, 00:38:06,VALID,917.885,VALID,0.0,VALID,98.849,VALID,-0.004,VALID,20.885,INVALID,360.0,VALID,0.0,
2019-06-20, 00:39:06,VALID,917.882,VALID,0.0,VALID,98.848,VALID,0.005,VALID,20.878,INVALID,360.0,VALID,0.0,
2019-06-20, 00:40:06,VALID,917.884,VALID,0.0,VALID,98.844,VALID,0.001,VALID,20.875,INVALID,360.0,VALID,0.0,
2019-06-20, 00:41:06,VALID,917.865,VALID,0.0,VALID,98.845,VALID,0.008,VALID,20.853,INVALID,360.0,VALID,0.0,
2019-06-20, 00:42:06,VALID,917.854,VALID,0.0,VALID,98.867,VALID,0.001,VALID,20.843,INVALID,360.0,VALID,0.0,
2019-06-20, 00:43:06,VALID,917.839,VALID,0.0,VALID,98.841,VALID,0.018,VALID,20.838,INVALID,360.0,VALID,0.0,
2019-06-20, 00:44:06,VALID,917.833,VALID,0.0,VALID,98.756,VALID,-0.001,VALID,20.818,INVALID,360.0,VALID,0.0,
2019-06-20, 00:45:06,VALID,917.826,VALID,0.0,VALID,98.719,VALID,0.017,VALID,20.811,INVALID,360.0,VALID,0.0,
2019-06-20, 00:46:06,VALID,917.821,VALID,0.0,VALID,98.637,VALID,0.001,VALID,20.796,INVALID,360.0,VALID,0.0,
2019-06-20, 00:47:06,VALID,917.812,VALID,0.0,VALID,98.589,VALID,0.015,VALID,20.798,INVALID,360.0,VALID,0.0,
2019-06-20, 00:48:06,VALID,917.793,VALID,0.0,VALID,98.57,VALID,0.01,VALID,20.8,INVALID,360.0,VALID,0.0,
2019-06-20, 00:49:06,VALID,917.792,VALID,0.0,VALID,98.541,VALID,0.016,VALID,20.814,INVALID,360.0,VALID,0.0,
2019-06-20, 00:50:06,VALID,917.789,VALID,0.0,VALID,98.513,VALID,0.025,VALID,20.822,INVALID,360.0,VALID,0.0,
2019-06-20, 00:51:06,VALID,917.789,VALID,0.0,VALID,98.485,VALID,0.023,VALID,20.826,INVALID,360.0,VALID,0.0,
2019-06-20, 00:52:06,VALID,917.787,VALID,0.0,VALID,98.416,VALID,0.03,VALID,20.827,INVALID,360.0,VALID,0.0,
2019-06-20, 00:53:06,VALID,917.766,VALID,0.0,VALID,98.403,VALID,0.03,VALID,20.819,INVALID,360.0,VALID,0.0,
2019-06-20, 00:54:06,VALID,917.766,VALID,0.0,VALID,98.363,VALID,0.036,VALID,20.818,INVALID,360.0,VALID,0.0,
2019-06-20, 00:55:06,VALID,917.747,VALID,0.0,VALID,98.324,VALID,0.027,VALID,20.823,INVALID,360.0,VALID,0.0,
2019-06-20, 00:56:06,VALID,917.749,VALID,0.0,VALID,98.312,VALID,0.027,VALID,20.812,INVALID,360.0,VALID,0.0,
2019-06-20, 00:57:06,VALID,917.745,VALID,0.0,VALID,98.311,VALID,0.017,VALID,20.795,INVALID,360.0,VALID,0.0,
2019-06-20, 00:58:06,VALID,917.724,VALID,0.0,VALID,98.351,VALID,0.018,VALID,20.791,INVALID,360.0,VALID,0.0,
2019-06-20, 00:59:06,VALID,917.71,VALID,0.0,VALID,98.45,VALID,0.016,VALID,20.803,INVALID,360.0,VALID,0.0,
2019-06-20, 01:00:06,VALID,917.701,VALID,0.0,VALID,98.486,VALID,0.002,VALID,20.78,INVALID,360.0,VALID,0.0,
2019-06-20, 01:01:06,VALID,917.677,VALID,0.0,VALID,98.554,VALID,0.015,VALID,20.775,INVALID,360.0,VALID,0.0,
2019-06-20, 01:02:06,VALID,917.69,VALID,0.0,VALID,98.626,VALID,0.008,VALID,20.769,INVALID,360.0,VALID,0.0,
2019-06-20, 01:03:06,VALID,917.674,VALID,0.0,VALID,98.689,VALID,-0.014,VALID,20.769,INVALID,360.0,VALID,0.0,
2019-06-20, 01:04:06,VALID,917.687,VALID,0.0,VALID,98.712,VALID,-0.007,VALID,20.76,INVALID,360.0,VALID,0.0,
2019-06-20, 01:05:06,VALID,917.667,VALID,0.0,VALID,98.772,VALID,-0.003,VALID,20.759,INVALID,360.0,VALID,0.0,
2019-06-20, 01:06:06,VALID,917.67,VALID,0.0,VALID,98.804,VALID,-0.003,VALID,20.758,INVALID,360.0,VALID,0.0,
2019-06-20, 01:07:06,VALID,917.664,VALID,0.0,VALID,98.839,VALID,-0.002,VALID,20.759,INVALID,360.0,VALID,0.0,
2019-06-20, 01:08:06,VALID,917.644,VALID,0.0,VALID,98.849,VALID,0.011,VALID,20.757,INVALID,360.0,VALID,0.0,
2019-06-20, 01:09:06,VALID,917.637,VALID,0.0,VALID,98.883,VALID,0.013,VALID,20.756,INVALID,360.0,VALID,0.0,
2019-06-20, 01:10:06,VALID,917.625,VALID,0.0,VALID,98.874,VALID,0.015,VALID,20.738,INVALID,360.0,VALID,0.0,
2019-06-20, 01:11:06,VALID,917.621,VALID,0.0,VALID,98.899,VALID,-0.003,VALID,20.724,INVALID,360.0,VALID,0.0,
2019-06-20, 01:12:06,VALID,917.596,VALID,0.0,VALID,98.86,VALID,-0.012,VALID,20.682,INVALID,360.0,VALID,0.0,
2019-06-20, 01:13:06,VALID,917.58,VALID,0.0,VALID,98.875,VALID,-0.004,VALID,20.666,INVALID,360.0,VALID,0.0,
2019-06-20, 01:14:06,VALID,917.566,VALID,0.0,VALID,98.89,VALID,-0.002,VALID,20.633,INVALID,360.0,VALID,0.0,
2019-06-20, 01:15:06,VALID,917.549,VALID,0.0,VALID,98.846,VALID,0.002,VALID,20.576,VALID,62.0,VALID,0.0,
2019-06-20, 01:16:06,VALID,917.526,VALID,0.0,VALID,98.809,VALID,0.009,VALID,20.522,INVALID,360.0,VALID,0.0,
2019-06-20, 01:17:06,VALID,917.516,VALID,0.0,VALID,98.801,VALID,0.002,VALID,20.498,INVALID,360.0,VALID,0.0,
2019-06-20, 01:18:06,VALID,917.492,VALID,0.0,VALID,98.887,VALID,0.006,VALID,20.513,INVALID,360.0,VALID,0.0,
2019-06-20, 01:19:06,VALID,917.498,VALID,0.0,VALID,98.887,VALID,0.005,VALID,20.47,INVALID,360.0,VALID,0.0,
2019-06-20, 01:20:06,VALID,917.482,VALID,0.0,VALID,98.864,VALID,-0.011,VALID,20.441,INVALID,360.0,VALID,0.0,
2019-06-20, 01:21:06,VALID,917.489,VALID,0.0,VALID,98.898,VALID,-0.009,VALID,20.443,INVALID,360.0,VALID,0.0,
2019-06-20, 01:22:06,VALID,917.479,VALID,0.0,VALID,98.962,VALID,-0.003,VALID,20.479,INVALID,360.0,VALID,0.0,
2019-06-20, 01:23:06,VALID,917.47,VALID,0.0,VALID,99.06,VALID,-0.001,VALID,20.539,INVALID,360.0,VALID,0.0,
2019-06-20, 01:24:06,VALID,917.436,VALID,0.0,VALID,99.065,VALID,-0.005,VALID,20.538,VALID,61.0,VALID,0.0,
2019-06-20, 01:25:06,VALID,917.413,VALID,0.0,VALID,99.096,VALID,-0.003,VALID,20.533,INVALID,360.0,VALID,0.0,
2019-06-20, 01:26:06,VALID,917.387,VALID,0.0,VALID,99.104,VALID,-0.001,VALID,20.537,INVALID,360.0,VALID,0.0,
2019-06-20, 01:27:06,VALID,917.363,VALID,0.0,VALID,99.123,VALID,0.006,VALID,20.55,INVALID,360.0,VALID,0.0,
2019-06-20, 01:28:06,VALID,917.356,VALID,0.0,VALID,99.148,VALID,-0.004,VALID,20.545,INVALID,360.0,VALID,0.0,
2019-06-20, 01:29:06,VALID,917.355,VALID,0.0,VALID,99.136,VALID,-0.009,VALID,20.541,INVALID,360.0,VALID,0.0,
2019-06-20, 01:30:06,VALID,917.324,VALID,0.0,VALID,99.154,VALID,-0.009,VALID,20.52,INVALID,360.0,VALID,0.0,
2019-06-20, 01:31:06,VALID,917.328,VALID,0.0,VALID,99.174,VALID,-0.007,VALID,20.519,INVALID,360.0,VALID,0.0,
2019-06-20, 01:32:06,VALID,917.332,VALID,0.0,VALID,99.217,VALID,0.001,VALID,20.535,INVALID,360.0,VALID,0.0,
2019-06-20, 01:33:06,VALID,917.315,VALID,0.0,VALID,99.231,VALID,-0.007,VALID,20.54,INVALID,360.0,VALID,0.0,
2019-06-20, 01:34:06,VALID,917.298,VALID,0.0,VALID,99.261,VALID,0.009,VALID,20.54,INVALID,360.0,VALID,0.0,
2019-06-20, 01:35:06,VALID,917.302,VALID,0.0,VALID,99.259,VALID,0.002,VALID,20.53,INVALID,360.0,VALID,0.0,
2019-06-20, 01:36:06,VALID,917.289,VALID,0.0,VALID,99.277,VALID,-0.002,VALID,20.519,INVALID,360.0,VALID,0.0,
2019-06-20, 01:37:06,VALID,917.287,VALID,0.0,VALID,99.281,VALID,0.013,VALID,20.515,INVALID,360.0,VALID,0.0,
2019-06-20, 01:38:06,VALID,917.277,VALID,0.0,VALID,99.292,VALID,0.001,VALID,20.522,INVALID,360.0,VALID,0.0,
2019-06-20, 01:39:06,VALID,917.268,VALID,0.0,VALID,99.304,VALID,0.024,VALID,20.511,INVALID,360.0,VALID,0.0,
2019-06-20, 01:40:06,VALID,917.264,VALID,0.0,VALID,99.32,VALID,0.034,VALID,20.499,INVALID,360.0,VALID,0.0,
2019-06-20, 01:41:06,VALID,917.257,VALID,0.0,VALID,99.319,VALID,0.035,VALID,20.498,INVALID,360.0,VALID,0.0,
2019-06-20, 01:42:06,VALID,917.271,VALID,0.0,VALID,99.337,VALID,0.038,VALID,20.494,INVALID,360.0,VALID,0.0,
2019-06-20, 01:43:06,VALID,917.272,VALID,0.0,VALID,99.329,VALID,0.029,VALID,20.493,INVALID,360.0,VALID,0.0,
2019-06-20, 01:44:06,VALID,917.28,VALID,0.0,VALID,99.353,VALID,0.019,VALID,20.49,INVALID,360.0,VALID,0.0,
2019-06-20, 01:45:06,VALID,917.281,VALID,0.0,VALID,99.361,VALID,0.022,VALID,20.484,INVALID,360.0,VALID,0.0,
2019-06-20, 01:46:06,VALID,917.259,VALID,0.0,VALID,99.364,VALID,0.016,VALID,20.48,INVALID,360.0,VALID,0.0,
2019-06-20, 01:47:06,VALID,917.24,VALID,0.0,VALID,99.377,VALID,0.007,VALID,20.469,INVALID,360.0,VALID,0.0,
2019-06-20, 01:48:06,VALID,917.232,VALID,0.0,VALID,99.374,VALID,0.014,VALID,20.466,INVALID,360.0,VALID,0.0,
2019-06-20, 01:49:06,VALID,917.222,VALID,0.0,VALID,99.384,VALID,0.013,VALID,20.466,INVALID,360.0,VALID,0.0,
2019-06-20, 01:50:06,VALID,917.22,VALID,0.0,VALID,99.405,VALID,0.009,VALID,20.478,INVALID,360.0,VALID,0.0,
2019-06-20, 01:51:06,VALID,917.19,VALID,0.0,VALID,99.395,VALID,0.007,VALID,20.485,INVALID,360.0,VALID,0.0,
2019-06-20, 01:52:06,VALID,917.191,VALID,0.0,VALID,99.417,VALID,-0.015,VALID,20.488,INVALID,360.0,VALID,0.0,
2019-06-20, 01:53:06,VALID,917.2,VALID,0.0,VALID,99.417,VALID,-0.008,VALID,20.475,INVALID,360.0,VALID,0.0,
2019-06-20, 01:54:06,VALID,917.194,VALID,0.0,VALID,99.421,VALID,0.0,VALID,20.469,INVALID,360.0,VALID,0.0,
2019-06-20, 01:55:06,VALID,917.187,VALID,0.0,VALID,99.419,VALID,-0.0,VALID,20.443,INVALID,360.0,VALID,0.0,
2019-06-20, 01:56:06,VALID,917.187,VALID,0.0,VALID,99.412,VALID,0.006,VALID,20.422,INVALID,360.0,VALID,0.0,
2019-06-20, 01:57:06,VALID,917.178,VALID,0.0,VALID,99.422,VALID,0.008,VALID,20.398,INVALID,360.0,VALID,0.0,
2019-06-20, 01:58:06,VALID,917.171,VALID,0.0,VALID,99.419,VALID,0.014,VALID,20.372,INVALID,360.0,VALID,0.0,
2019-06-20, 01:59:06,VALID,917.17,VALID,0.0,VALID,99.426,VALID,0.0,VALID,20.346,INVALID,360.0,VALID,0.0,
2019-06-20, 02:00:06,VALID,917.17,VALID,0.0,VALID,99.41,VALID,0.013,VALID,20.311,INVALID,360.0,VALID,0.0,
2019-06-20, 02:01:06,VALID,917.177,VALID,0.0,VALID,99.419,VALID,0.01,VALID,20.282,INVALID,360.0,VALID,0.0,
2019-06-20, 02:02:06,VALID,917.195,VALID,0.0,VALID,99.414,VALID,-0.009,VALID,20.278,INVALID,360.0,VALID,0.0,
2019-06-20, 02:03:06,VALID,917.22,VALID,0.0,VALID,99.424,VALID,0.005,VALID,20.253,INVALID,360.0,VALID,0.0,
2019-06-20, 02:04:06,VALID,917.228,VALID,0.0,VALID,99.429,VALID,0.014,VALID,20.251,INVALID,360.0,VALID,0.0,
2019-06-20, 02:05:06,VALID,917.233,VALID,0.0,VALID,99.443,VALID,0.008,VALID,20.271,INVALID,360.0,VALID,0.0,
2019-06-20, 02:06:06,VALID,917.256,VALID,0.0,VALID,99.439,VALID,0.017,VALID,20.257,INVALID,360.0,VALID,0.0,
2019-06-20, 02:07:06,VALID,917.256,VALID,0.0,VALID,99.437,VALID,0.005,VALID,20.257,INVALID,360.0,VALID,0.0,
2019-06-20, 02:08:06,VALID,917.268,VALID,0.0,VALID,99.437,VALID,0.004,VALID,20.25,INVALID,360.0,VALID,0.0,
2019-06-20, 02:09:06,VALID,917.239,VALID,0.0,VALID,99.433,VALID,0.001,VALID,20.234,INVALID,360.0,VALID,0.0,
2019-06-20, 02:10:06,VALID,917.253,VALID,0.0,VALID,99.425,VALID,-0.002,VALID,20.218,INVALID,360.0,VALID,0.0,
2019-06-20, 02:11:06,VALID,917.249,VALID,0.0,VALID,99.436,VALID,0.023,VALID,20.217,INVALID,360.0,VALID,0.0,
2019-06-20, 02:12:06,VALID,917.257,VALID,0.0,VALID,99.444,VALID,0.011,VALID,20.233,INVALID,360.0,VALID,0.0,
2019-06-20, 02:13:06,VALID,917.263,VALID,0.0,VALID,99.44,VALID,0.012,VALID,20.211,INVALID,360.0,VALID,0.0,
2019-06-20, 02:14:06,VALID,917.285,VALID,0.0,VALID,99.47,VALID,0.001,VALID,20.248,INVALID,360.0,VALID,0.0,
2019-06-20, 02:15:06,VALID,917.286,VALID,0.0,VALID,99.475,VALID,0.011,VALID,20.296,INVALID,360.0,VALID,0.0,
2019-06-20, 02:16:06,VALID,917.281,VALID,0.0,VALID,99.479,VALID,0.016,VALID,20.3,INVALID,360.0,VALID,0.0,
2019-06-20, 02:17:06,VALID,917.251,VALID,0.0,VALID,99.477,VALID,0.005,VALID,20.275,INVALID,360.0,VALID,0.0,
2019-06-20, 02:18:06,VALID,917.24,VALID,0.0,VALID,99.477,VALID,-0.01,VALID,20.282,INVALID,360.0,VALID,0.0,
2019-06-20, 02:19:06,VALID,917.212,VALID,0.0,VALID,99.481,VALID,-0.013,VALID,20.291,INVALID,360.0,VALID,0.0,
2019-06-20, 02:20:06,VALID,917.203,VALID,0.0,VALID,99.475,VALID,0.001,VALID,20.266,INVALID,360.0,VALID,0.0,
2019-06-20, 02:21:06,VALID,917.194,VALID,0.0,VALID,99.462,VALID,-0.01,VALID,20.26,INVALID,360.0,VALID,0.0,
2019-06-20, 02:22:06,VALID,917.186,VALID,0.0,VALID,99.484,VALID,-0.012,VALID,20.247,INVALID,360.0,VALID,0.0,
2019-06-20, 02:23:06,VALID,917.193,VALID,0.0,VALID,99.471,VALID,-0.024,VALID,20.232,INVALID,360.0,VALID,0.0,
2019-06-20, 02:24:06,VALID,917.201,VALID,0.0,VALID,99.477,VALID,-0.019,VALID,20.223,INVALID,360.0,VALID,0.0,
2019-06-20, 02:25:06,VALID,917.206,VALID,0.0,VALID,99.48,VALID,-0.015,VALID,20.215,INVALID,360.0,VALID,0.0,
2019-06-20, 02:26:06,VALID,917.191,VALID,0.0,VALID,99.488,VALID,-0.022,VALID,20.214,INVALID,360.0,VALID,0.0,
2019-06-20, 02:27:06,VALID,917.202,VALID,0.0,VALID,99.486,VALID,-0.027,VALID,20.23,INVALID,360.0,VALID,0.0,
2019-06-20, 02:28:06,VALID,917.185,VALID,0.0,VALID,99.483,VALID,-0.019,VALID,20.258,INVALID,360.0,VALID,0.0,
2019-06-20, 02:29:06,VALID,917.15,VALID,0.0,VALID,99.508,VALID,-0.023,VALID,20.236,INVALID,360.0,VALID,0.0,
2019-06-20, 02:30:06,VALID,917.098,VALID,0.0,VALID,99.485,VALID,-0.023,VALID,20.193,INVALID,360.0,VALID,0.0,
2019-06-20, 02:31:06,VALID,917.079,VALID,0.0,VALID,99.47,VALID,-0.016,VALID,20.157,INVALID,360.0,VALID,0.0,
2019-06-20, 02:32:06,VALID,917.044,VALID,0.0,VALID,99.467,VALID,-0.0,VALID,20.141,INVALID,360.0,VALID,0.0,
2019-06-20, 02:33:06,VALID,917.041,VALID,0.0,VALID,99.502,VALID,-0.004,VALID,20.149,INVALID,360.0,VALID,0.0,
2019-06-20, 02:34:06,VALID,917.031,VALID,0.0,VALID,99.484,VALID,-0.002,VALID,20.142,INVALID,360.0,VALID,0.0,
2019-06-20, 02:35:06,VALID,917.027,VALID,0.0,VALID,99.503,VALID,-0.005,VALID,20.164,INVALID,360.0,VALID,0.0,
2019-06-20, 02:36:06,VALID,917.042,VALID,0.0,VALID,99.519,VALID,-0.006,VALID,20.184,INVALID,360.0,VALID,0.0,
2019-06-20, 02:37:06,VALID,917.028,VALID,0.0,VALID,99.515,VALID,-0.006,VALID,20.185,INVALID,360.0,VALID,0.0,
2019-06-20, 02:38:06,VALID,917.033,VALID,0.0,VALID,99.527,VALID,-0.003,VALID,20.192,INVALID,360.0,VALID,0.0,
2019-06-20, 02:39:06,VALID,917.038,VALID,0.0,VALID,99.524,VALID,-0.011,VALID,20.192,INVALID,360.0,VALID,0.0,
2019-06-20, 02:40:06,VALID,917.061,VALID,0.0,VALID,99.535,VALID,-0.006,VALID,20.178,INVALID,360.0,VALID,0.0,
2019-06-20, 02:41:06,VALID,917.063,VALID,0.0,VALID,99.541,VALID,-0.003,VALID,20.193,INVALID,360.0,VALID,0.0,
2019-06-20, 02:42:06,VALID,917.076,VALID,0.0,VALID,99.552,VALID,-0.002,VALID,20.219,INVALID,360.0,VALID,0.0,
2019-06-20, 02:43:06,VALID,917.063,VALID,0.0,VALID,99.567,VALID,-0.008,VALID,20.23,INVALID,360.0,VALID,0.0,
2019-06-20, 02:44:06,VALID,917.034,VALID,0.0,VALID,99.583,VALID,-0.009,VALID,20.242,INVALID,360.0,VALID,0.0,
2019-06-20, 02:45:06,VALID,917.013,VALID,0.0,VALID,99.565,VALID,-0.004,VALID,20.26,INVALID,360.0,VALID,0.0,
2019-06-20, 02:46:06,VALID,917.001,VALID,0.0,VALID,99.571,VALID,0.006,VALID,20.274,INVALID,360.0,VALID,0.0,
2019-06-20, 02:47:06,VALID,916.979,VALID,0.0,VALID,99.569,VALID,-0.006,VALID,20.267,INVALID,360.0,VALID,0.0,
2019-06-20, 02:48:06,VALID,916.952,VALID,0.0,VALID,99.572,VALID,0.009,VALID,20.241,INVALID,360.0,VALID,0.0,
2019-06-20, 02:49:06,VALID,916.941,VALID,0.0,VALID,99.567,VALID,0.007,VALID,20.238,INVALID,360.0,VALID,0.0,
2019-06-20, 02:50:06,VALID,916.934,VALID,0.0,VALID,99.586,VALID,0.005,VALID,20.234,INVALID,360.0,VALID,0.0,
2019-06-20, 02:51:06,VALID,916.93,VALID,0.0,VALID,99.574,VALID,-0.0,VALID,20.223,INVALID,360.0,VALID,0.0,
2019-06-20, 02:52:06,VALID,916.952,VALID,0.0,VALID,99.556,VALID,0.012,VALID,20.216,INVALID,360.0,VALID,0.0,
2019-06-20, 02:53:06,VALID,916.97,VALID,0.0,VALID,99.586,VALID,0.011,VALID,20.213,INVALID,360.0,VALID,0.0,
2019-06-20, 02:54:06,VALID,916.984,VALID,0.0,VALID,99.573,VALID,0.004,VALID,20.215,INVALID,360.0,VALID,0.0,
2019-06-20, 02:55:06,VALID,916.991,VALID,0.0,VALID,99.578,VALID,-0.01,VALID,20.23,INVALID,360.0,VALID,0.0,
2019-06-20, 02:56:06,VALID,917.006,VALID,0.0,VALID,99.591,VALID,-0.007,VALID,20.254,INVALID,360.0,VALID,0.0,
2019-06-20, 02:57:06,VALID,917.003,VALID,0.0,VALID,99.587,VALID,0.006,VALID,20.268,INVALID,360.0,VALID,0.0,
2019-06-20, 02:58:06,VALID,917.025,VALID,0.0,VALID,99.6,VALID,0.012,VALID,20.273,INVALID,360.0,VALID,0.0,
2019-06-20, 02:59:06,VALID,917.02,VALID,0.0,VALID,99.602,VALID,0.003,VALID,20.282,INVALID,360.0,VALID,0.0,
2019-06-20, 03:00:06,VALID,917.033,VALID,0.0,VALID,99.595,VALID,-0.009,VALID,20.294,INVALID,360.0,VALID,0.0,
2019-06-20, 03:01:06,VALID,917.017,VALID,0.0,VALID,99.593,VALID,0.001,VALID,20.301,INVALID,360.0,VALID,0.0,
2019-06-20, 03:02:06,VALID,917.003,VALID,0.0,VALID,99.616,VALID,0.002,VALID,20.295,INVALID,360.0,VALID,0.0,
2019-06-20, 03:03:06,VALID,916.998,VALID,0.0,VALID,99.591,VALID,0.017,VALID,20.291,INVALID,360.0,VALID,0.0,
2019-06-20, 03:04:06,VALID,916.981,VALID,0.0,VALID,99.59,VALID,0.018,VALID,20.284,INVALID,360.0,VALID,0.0,
2019-06-20, 03:05:06,VALID,916.954,VALID,0.0,VALID,99.58,VALID,0.001,VALID,20.278,INVALID,360.0,VALID,0.0,
2019-06-20, 03:06:06,VALID,916.924,VALID,0.0,VALID,99.579,VALID,0.007,VALID,20.268,INVALID,360.0,VALID,0.0,
2019-06-20, 03:07:06,VALID,916.913,VALID,0.0,VALID,99.57,VALID,0.026,VALID,20.259,INVALID,360.0,VALID,0.0,
2019-06-20, 03:08:06,VALID,916.889,VALID,0.0,VALID,99.562,VALID,0.013,VALID,20.25,INVALID,360.0,VALID,0.0,
2019-06-20, 03:09:06,VALID,916.885,VALID,0.0,VALID,99.53,VALID,0.013,VALID,20.24,INVALID,360.0,VALID,0.0,
2019-06-20, 03:10:06,VALID,916.872,VALID,0.0,VALID,99.525,VALID,0.015,VALID,20.227,INVALID,360.0,VALID,0.0,
2019-06-20, 03:11:06,VALID,916.894,VALID,0.0,VALID,99.514,VALID,0.002,VALID,20.228,INVALID,360.0,VALID,0.0,
2019-06-20, 03:12:06,VALID,916.903,VALID,0.0,VALID,99.513,VALID,0.021,VALID,20.222,INVALID,360.0,VALID,0.0,
2019-06-20, 03:13:06,VALID,916.926,VALID,0.0,VALID,99.512,VALID,0.023,VALID,20.237,INVALID,360.0,VALID,0.0,
2019-06-20, 03:14:06,VALID,916.907,VALID,0.0,VALID,99.526,VALID,0.012,VALID,20.232,INVALID,360.0,VALID,0.0,
2019-06-20, 03:15:06,VALID,916.9,VALID,0.0,VALID,99.52,VALID,0.03,VALID,20.233,INVALID,360.0,VALID,0.0,
2019-06-20, 03:16:06,VALID,916.9,VALID,0.0,VALID,99.53,VALID,0.014,VALID,20.239,INVALID,360.0,VALID,0.0,
2019-06-20, 03:17:06,VALID,916.913,VALID,0.0,VALID,99.553,VALID,0.008,VALID,20.258,INVALID,360.0,VALID,0.0,
2019-06-20, 03:18:06,VALID,916.937,VALID,0.0,VALID,99.545,VALID,0.014,VALID,20.281,INVALID,360.0,VALID,0.0,
2019-06-20, 03:19:06,VALID,916.9,VALID,0.0,VALID,99.53,VALID,0.014,VALID,20.301,INVALID,360.0,VALID,0.0,
2019-06-20, 03:20:06,VALID,916.897,VALID,0.0,VALID,99.53,VALID,0.014,VALID,20.306,INVALID,360.0,VALID,0.0,
2019-06-20, 03:21:06,VALID,916.881,VALID,0.0,VALID,99.495,VALID,0.019,VALID,20.311,INVALID,360.0,VALID,0.0,
2019-06-20, 03:22:06,VALID,916.855,VALID,0.0,VALID,99.488,VALID,0.031,VALID,20.317,INVALID,360.0,VALID,0.0,
2019-06-20, 03:23:06,VALID,916.848,VALID,0.0,VALID,99.482,VALID,0.033,VALID,20.311,INVALID,360.0,VALID,0.0,
2019-06-20, 03:24:06,VALID,916.812,VALID,0.0,VALID,99.445,VALID,0.013,VALID,20.308,INVALID,360.0,VALID,0.0,
2019-06-20, 03:25:06,VALID,916.806,VALID,0.0,VALID,99.436,VALID,0.013,VALID,20.293,INVALID,360.0,VALID,0.0,
2019-06-20, 03:26:06,VALID,916.794,VALID,0.0,VALID,99.432,VALID,0.036,VALID,20.282,INVALID,360.0,VALID,0.0,
2019-06-20, 03:27:06,VALID,916.767,VALID,0.0,VALID,99.416,VALID,0.025,VALID,20.275,INVALID,360.0,VALID,0.0,
2019-06-20, 03:28:06,VALID,916.758,VALID,0.0,VALID,99.411,VALID,0.018,VALID,20.273,INVALID,360.0,VALID,0.0,
2019-06-20, 03:29:06,VALID,916.762,VALID,0.0,VALID,99.409,VALID,0.018,VALID,20.263,INVALID,360.0,VALID,0.0,
2019-06-20, 03:30:06,VALID,916.764,VALID,0.0,VALID,99.416,VALID,0.028,VALID,20.259,INVALID,360.0,VALID,0.0,
2019-06-20, 03:31:06,VALID,916.765,VALID,0.0,VALID,99.434,VALID,0.009,VALID,20.263,INVALID,360.0,VALID,0.0,
2019-06-20, 03:32:06,VALID,916.76,VALID,0.0,VALID,99.427,VALID,0.003,VALID,20.27,INVALID,360.0,VALID,0.0,
2019-06-20, 03:33:06,VALID,916.76,VALID,0.0,VALID,99.406,VALID,0.011,VALID,20.27,INVALID,360.0,VALID,0.0,
2019-06-20, 03:34:06,VALID,916.775,VALID,0.0,VALID,99.42,VALID,0.021,VALID,20.276,INVALID,360.0,VALID,0.0,
2019-06-20, 03:35:06,VALID,916.778,VALID,0.0,VALID,99.406,VALID,0.015,VALID,20.275,INVALID,360.0,VALID,0.0,
2019-06-20, 03:36:06,VALID,916.775,VALID,0.0,VALID,99.393,VALID,0.015,VALID,20.267,INVALID,360.0,VALID,0.0,
2019-06-20, 03:37:06,VALID,916.758,VALID,0.0,VALID,99.374,VALID,0.006,VALID,20.264,INVALID,360.0,VALID,0.0,
2019-06-20, 03:38:06,VALID,916.737,VALID,0.0,VALID,99.372,VALID,0.012,VALID,20.278,INVALID,360.0,VALID,0.0,